カタログに戻る

CZ-6A DEB

運用中PO
NORAD 60664·DEBRIS·🇨🇳 China

打ち上げ Aug 6, 2024 から Taiyuan Satellite Launch Center

Loading…

次のパス (今後24時間)

TLE

最新Source: Space-Track

元期: Sep 14, 2026, 00:44 UTC

1 60664U 24140BR  26257.03116482  .00000652  00000-0  14078-3 0  9996
2 60664  89.0329 263.3767 0111003 326.5487  32.8741 14.53418687111184

AllMySatでCZ-6A DEBをリアルタイム追跡

Download on the App Store